Regional Weather Roundup
Issued by NWS

Home | Current Version | Previous Version | Graphics & Text | Print | Product List | Glossary On
Versions: 1 2 3 4 5 6 7 8 9 10 11 12 13 14 15 16 17 18 19 20 21 22 23 24 25 26 27 28 29 30 31 32 33 34 35 36 37 38 39 40 41 42 43 44 45 46 47 48 49 50
000
ASUS43 KBIS 011510
RWRND

NORTH DAKOTA REGIONAL WEATHER ROUNDUP
NATIONAL WEATHER SERVICE BISMARCK ND
1000 AM CDT SAT AUG 01 2015

NOTE: "FAIR" INDICATES FEW OR NO CLOUDS BELOW 12,000 FEET WITH NO
SIGNIFICANT WEATHER AND/OR OBSTRUCTIONS TO VISIBILITY.


NDZ001>003-009>011-017-011600-
NORTHWEST NORTH DAKOTA

CITY           SKY/WX    TMP DP  RH WIND       PRES   REMARKS
WILLISTON      SUNNY     73  57  57 S6        29.92F
MINOT          SUNNY     72  54  53 SE5       29.90F
MINOT AFB      SUNNY     74  57  55 SE2       29.90S
$$

NDZ018>021-031>035-040>046-011600-
SOUTHWEST NORTH DAKOTA

CITY           SKY/WX    TMP DP  RH WIND       PRES   REMARKS
BISMARCK       SUNNY     75  58  55 S6        29.88F
DICKINSON      SUNNY     71  53  52 NW12      29.93S
GARRISON         N/A     73  59  61 E5        29.91F
HETTINGER ARPT SUNNY     80  52  37 W10       29.95F
$$

NDZ004>008-012>016-024-026-027-054-011600-
NORTHEAST NORTH DAKOTA

CITY           SKY/WX    TMP DP  RH WIND       PRES   REMARKS
GRAND FORKS    MOSUNNY   74  56  53 CALM      29.91F
GRND FRKS AFB  SUNNY     76  56  51 VRB2      29.91F
DEVILS LAKE    SUNNY     73  52  46 S9        29.91F
$$

NDZ022-023-025-028>030-036>039-047>053-011600-
SOUTHEAST NORTH DAKOTA

CITY           SKY/WX    TMP DP  RH WIND       PRES   REMARKS
FARGO          SUNNY     75  55  49 VRB3      29.94F
JAMESTOWN      MOSUNNY   74  60  61 SE8       29.92F
$$



USA.gov is the U.S. government's official web portal to all federal, state and local government web resources and services.